• In Hungary
  • List of Countries
  • For 7 days
  • Water Temperature
  • Satellite Maps
  • Weather Map
  • News
  • Weather Widgets
  • user-avatar
    Login

    Hourly Weather Sedtydin

    Today, 21 May, Monday

    Time Temperature Precipitation Wind Pressure Humidity
    00:00 +3°C° 0 mm 1 mps 750 mmHg 78%
    01:00 +2°C° 0 mm 1 mps 750 mmHg 80%
    02:00 +2°C° 0 mm 1 mps 751 mmHg 80%
    03:00 +2°C° 0 mm 1 mps 751 mmHg 81%
    04:00 +2°C° 0 mm 1 mps 752 mmHg 82%
    05:00 +4°C° 0 mm 1 mps 752 mmHg 73%
    06:00 +6°C° 0 mm 1 mps 752 mmHg 65%
    07:00 +8°C° 0 mm 1 mps 752 mmHg 57%
    08:00 +10°C° 0 mm 1 mps 753 mmHg 53%
    09:00 +12°C° 0 mm 2 mps 753 mmHg 49%
    10:00 +14°C° 0 mm 2 mps 753 mmHg 45%
    11:00 +15°C° 0 mm 2 mps 753 mmHg 44%
    12:00 +16°C° 0 mm 3 mps 753 mmHg 43%
    13:00 +16°C° 0 mm 3 mps 753 mmHg 42%
    14:00 +17°C° 0 mm 3 mps 753 mmHg 41%
    15:00 +17°C° 0 mm 3 mps 752 mmHg 39%
    16:00 +17°C° 0 mm 3 mps 752 mmHg 38%
    17:00 +17°C° 0 mm 3 mps 752 mmHg 40%
    18:00 +16°C° 0 mm 2 mps 752 mmHg 42%
    19:00 +16°C° 0 mm 2 mps 752 mmHg 44%
    20:00 +14°C° 0 mm 2 mps 752 mmHg 48%
    21:00 +13°C° 0 mm 2 mps 752 mmHg 52%
    22:00 +10°C° 0 mm 2 mps 752 mmHg 56%
    23:00 +10°C° 0 mm 2 mps 752 mmHg 55%

    Tomorrow, 22 May, Tuesday

    Time Temperature Precipitation Wind Pressure Humidity
    00:00 +10°C° 0 mm 3 mps 752 mmHg 54%
    01:00 +10°C° 0 mm 3 mps 752 mmHg 53%
    02:00 +10°C° 0 mm 3 mps 752 mmHg 56%
    03:00 +11°C° 0 mm 3 mps 752 mmHg 59%
    04:00 +11°C° 0 mm 4 mps 751 mmHg 63%
    05:00 +12°C° 0 mm 4 mps 752 mmHg 60%
    06:00 +13°C° 0 mm 4 mps 752 mmHg 56%
    07:00 +15°C° 0 mm 5 mps 752 mmHg 53%
    08:00 +16°C° 0 mm 5 mps 752 mmHg 51%
    09:00 +16°C° 0 mm 5 mps 752 mmHg 49%
    10:00 +17°C° 0 mm 5 mps 753 mmHg 47%
    11:00 +19°C° 0 mm 5 mps 753 mmHg 45%
    12:00 +19°C° 0 mm 5 mps 753 mmHg 43%
    13:00 +20°C° 0 mm 5 mps 753 mmHg 40%
    14:00 +20°C° 0 mm 5 mps 753 mmHg 37%
    15:00 +21°C° 0 mm 5 mps 754 mmHg 33%
    16:00 +21°C° 0 mm 5 mps 754 mmHg 29%
    17:00 +20°C° 0 mm 4 mps 754 mmHg 30%
    18:00 +19°C° 0 mm 4 mps 754 mmHg 30%
    19:00 +18°C° 0 mm 3 mps 755 mmHg 30%
    20:00 +16°C° 0 mm 2 mps 755 mmHg 34%
    21:00 +13°C° 0 mm 2 mps 755 mmHg 39%
    22:00 +11°C° 0 mm 1 mps 755 mmHg 43%
    23:00 +10°C° 0 mm 1 mps 755 mmHg 44%

    Day after tomorrow, 23 May, Wednesday

    Time Temperature Precipitation Wind Pressure Humidity
    00:00 +10°C° 0 mm 1 mps 756 mmHg 46%
    01:00 +9°C° 0 mm 1 mps 756 mmHg 48%
    02:00 +9°C° 0 mm 1 mps 755 mmHg 48%
    03:00 +9°C° 0 mm 1 mps 755 mmHg 49%
    04:00 +8°C° 0 mm 1 mps 755 mmHg 50%
    05:00 +9°C° 0 mm 2 mps 755 mmHg 47%
    06:00 +12°C° 0 mm 2 mps 754 mmHg 44%
    07:00 +12°C° 0 mm 3 mps 753 mmHg 41%
    08:00 +14°C° 0 mm 3 mps 753 mmHg 42%
    09:00 +17°C° 0 mm 3 mps 752 mmHg 42%
    10:00 +19°C° 0 mm 3 mps 751 mmHg 43%
    11:00 +21°C° 0 mm 4 mps 751 mmHg 41%
    12:00 +23°C° 0 mm 5 mps 750 mmHg 38%
    13:00 +26°C° 0 mm 5 mps 749 mmHg 36%
    14:00 +23°C° 0.1 mm 5 mps 749 mmHg 43%
    15:00 +21°C° 0.1 mm 5 mps 748 mmHg 50%
    16:00 +19°C° 0.1 mm 5 mps 748 mmHg 58%
    17:00 +19°C° 0 mm 5 mps 748 mmHg 56%
    18:00 +20°C° 0 mm 4 mps 747 mmHg 54%
    19:00 +20°C° 0 mm 4 mps 747 mmHg 52%
    20:00 +18°C° 0 mm 4 mps 747 mmHg 59%
    21:00 +17°C° 0 mm 3 mps 746 mmHg 65%
    22:00 +16°C° 0 mm 3 mps 746 mmHg 71%
    23:00 +14°C° 0.4 mm 3 mps 745 mmHg 77%

    24 May, Thursday

    Time Temperature Precipitation Wind Pressure Humidity
    00:00 +14°C° 0.4 mm 3 mps 745 mmHg 83%
    01:00 +13°C° 0.4 mm 3 mps 744 mmHg 89%
    02:00 +14°C° 1.5 mm 2 mps 744 mmHg 92%
    03:00 +14°C° 1.5 mm 2 mps 744 mmHg 94%
    04:00 +14°C° 1.5 mm 2 mps 743 mmHg 97%
    05:00 +12°C° 2 mm 3 mps 743 mmHg 94%
    06:00 +11°C° 2 mm 4 mps 744 mmHg 91%
    07:00 +9°C° 2 mm 6 mps 744 mmHg 88%
    08:00 +9°C° 0.1 mm 5 mps 745 mmHg 82%
    09:00 +9°C° 0.1 mm 5 mps 746 mmHg 76%
    10:00 +8°C° 0.1 mm 5 mps 747 mmHg 70%
    11:00 +10°C° 0 mm 4 mps 747 mmHg 60%
    12:00 +11°C° 0 mm 4 mps 748 mmHg 51%
    13:00 +12°C° 0 mm 4 mps 749 mmHg 42%
    14:00 +12°C° 0 mm 4 mps 749 mmHg 42%
    15:00 +12°C° 0 mm 5 mps 749 mmHg 42%
    16:00 +10°C° 0 mm 5 mps 749 mmHg 42%
    17:00 +9°C° 0 mm 5 mps 750 mmHg 44%
    18:00 +8°C° 0 mm 4 mps 750 mmHg 45%
    19:00 +8°C° 0 mm 4 mps 750 mmHg 47%
    20:00 +6°C° 0 mm 4 mps 751 mmHg 53%
    21:00 +5°C° 0 mm 3 mps 751 mmHg 58%
    22:00 +4°C° 0 mm 2 mps 751 mmHg 64%
    23:00 +4°C° 0 mm 2 mps 751 mmHg 66%

    25 May, Friday

    Time Temperature Precipitation Wind Pressure Humidity
    00:00 +3°C° 0 mm 2 mps 751 mmHg 68%
    01:00 +3°C° 0 mm 2 mps 752 mmHg 70%
    02:00 +2°C° 0 mm 3 mps 752 mmHg 71%
    03:00 +2°C° 0 mm 3 mps 752 mmHg 73%
    04:00 +2°C° 0 mm 3 mps 752 mmHg 74%
    05:00 +2°C° 0 mm 3 mps 753 mmHg 71%
    06:00 +2°C° 0 mm 3 mps 753 mmHg 68%
    07:00 +3°C° 0 mm 4 mps 753 mmHg 65%
    08:00 +3°C° 0.1 mm 4 mps 753 mmHg 60%
    09:00 +4°C° 0.1 mm 4 mps 753 mmHg 55%
    10:00 +5°C° 0.1 mm 4 mps 753 mmHg 49%
    11:00 +5°C° 0 mm 4 mps 753 mmHg 48%
    12:00 +5°C° 0 mm 4 mps 753 mmHg 46%
    13:00 +5°C° 0 mm 4 mps 754 mmHg 44%
    14:00 +5°C° 0 mm 4 mps 754 mmHg 44%
    15:00 +5°C° 0 mm 4 mps 754 mmHg 44%
    16:00 +5°C° 0 mm 4 mps 754 mmHg 43%
    17:00 +5°C° 0 mm 4 mps 754 mmHg 44%
    18:00 +5°C° 0 mm 4 mps 755 mmHg 45%
    19:00 +4°C° 0 mm 4 mps 755 mmHg 46%
    20:00 +3°C° 0 mm 4 mps 755 mmHg 52%
    21:00 +2°C° 0 mm 3 mps 755 mmHg 57%
    22:00 +1°C° 0 mm 2 mps 756 mmHg 63%
    23:00 +1°C° 0 mm 2 mps 756 mmHg 66%

    26 May, Saturday

    Time Temperature Precipitation Wind Pressure Humidity
    00:00 -1°C° 0 mm 2 mps 756 mmHg 68%
    01:00 -1°C° 0 mm 2 mps 756 mmHg 71%
    02:00 -2°C° 0 mm 2 mps 756 mmHg 72%
    03:00 -2°C° 0 mm 2 mps 757 mmHg 73%
    04:00 -2°C° 0 mm 2 mps 757 mmHg 74%
    05:00 -1°C° 0 mm 3 mps 757 mmHg 66%
    06:00 +1°C° 0 mm 3 mps 757 mmHg 57%
    07:00 +2°C° 0 mm 3 mps 757 mmHg 49%
    08:00 +4°C° 0 mm 3 mps 757 mmHg 45%
    09:00 +5°C° 0 mm 3 mps 757 mmHg 41%
    10:00 +7°C° 0 mm 3 mps 757 mmHg 37%
    11:00 +8°C° 0 mm 3 mps 756 mmHg 35%
    12:00 +10°C° 0 mm 3 mps 756 mmHg 34%
    13:00 +11°C° 0 mm 3 mps 756 mmHg 33%
    14:00 +11°C° 0 mm 3 mps 755 mmHg 33%
    15:00 +11°C° 0 mm 3 mps 755 mmHg 33%
    16:00 +12°C° 0 mm 3 mps 754 mmHg 33%
    17:00 +12°C° 0 mm 2 mps 754 mmHg 35%
    18:00 +12°C° 0 mm 2 mps 754 mmHg 37%
    19:00 +12°C° 0 mm 1 mps 754 mmHg 39%
    20:00 +10°C° 0 mm 1 mps 754 mmHg 45%
    21:00 +8°C° 0 mm 1 mps 754 mmHg 52%
    22:00 +5°C° 0 mm 0 mps 753 mmHg 58%
    23:00 +5°C° 0 mm 1 mps 753 mmHg 60%
    Show more